Temperature
24 23 22 22 24 25 27 29 29 29 29 28 28 28 27 26 25 22 21 21 20 20 20 19 19 19 19 19 19 19 19 19 18 18 18 18 18 18 18 18 18 18 18 18 18 18 18 18 18
23 23 23 25 26 26 27 29 29 29 29 28 28 27 26 25 24 22 21 21 20 20 19 19 19 19 19 19 19 19 19 19 18 18 18 18 18 18 18 18 18 18 18 18 18 18 18 18 18
23 24 25 27 27 28 28 29 29 29 29 28 28 26 25 24 23 22 22 21 20 20 20 20 20 19 19 19 19 19 19 19 18 18 18 18 18 18 18 18 18 18 18 18 18 18 18 18 18
24 25 27 28 28 30 30 30 30 30 29 29 28 26 25 24 23 22 22 21 20 20 20 20 20 19 19 19 19 19 19 18 18 18 18 18 18 18 18 18 18 18 18 18 18 18 18 18 19
25 27 28 28 29 31 31 31 30 30 29 28 27 26 24 23 23 22 22 21 21 20 20 20 20 19 19 19 19 19 19 19 18 18 18 18 18 18 18 18 18 18 18 18 18 18 18 19 19
27 28 29 29 30 31 31 31 30 30 29 28 27 25 24 23 23 22 22 22 21 20 20 20 20 19 19 19 19 19 19 19 19 18 19 19 18 18 18 18 18 18 18 18 18 18 19 19 19
28 29 29 30 30 30 31 31 31 30 30 29 27 26 24 23 23 22 22 22 21 20 20 20 20 20 19 19 19 19 19 19 19 19 19 19 19 18 18 18 18 18 19 19 19 19 19 19 19
30 30 29 30 31 31 32 31 31 30 29 29 28 26 24 23 23 23 22 22 21 21 20 20 19 19 19 19 19 19 19 19 19 19 19 19 19 19 18 18 19 19 19 19 19 19 19 19 19
31 30 29 31 31 31 32 31 31 30 30 29 28 26 25 23 23 23 22 22 21 21 20 20 20 19 19 19 19 19 19 19 19 19 19 19 19 18 18 19 19 19 19 19 19 19 19 19 19
32 30 30 33 33 32 32 32 31 30 29 28 27 25 24 24 23 23 22 22 21 21 21 20 20 20 20 19 19 19 19 19 19 19 19 19 19 18 18 19 19 19 19 19 19 19 19 19 19
33 31 32 33 33 33 32 32 31 30 29 28 27 25 24 24 24 23 23 22 22 21 21 21 21 21 20 20 20 19 19 19 19 19 19 19 19 18 19 19 19 19 18 19 19 19 19 19 19
33 33 33 33 33 33 32 32 31 30 29 28 27 26 25 24 24 24 23 23 22 21 21 21 21 20 20 20 20 20 19 19 19 19 19 19 19 19 19 19 19 19 19 19 19 19 19 19 19
33 33 33 33 33 33 32 32 31 30 29 28 27 26 25 25 24 24 24 23 22 22 21 21 20 20 20 20 20 20 20 19 19 19 19 19 19 19 19 19 19 19 19 19 19 19 19 19 19
33 33 33 33 33 33 33 32 31 30 29 28 27 27 26 25 25 24 24 23 22 22 21 21 20 20 20 20 20 20 20 20 19 19 19 19 19 19 19 19 19 19 19 19 19 19 19 19 19
33 33 33 33 33 33 33 31 31 30 29 28 28 27 26 26 25 24 24 23 22 22 21 21 20 20 20 20 20 20 20 20 20 19 19 19 19 19 19 19 19 19 19 19 19 19 19 19 19
33 32 31 32 33 33 32 30 31 30 30 29 28 27 26 26 25 24 24 23 22 22 21 21 21 20 20 20 20 20 20 20 20 20 19 19 19 19 19 19 19 19 19 19 19 19 19 19 19
31 31 31 32 34 34 33 30 31 31 30 29 29 28 26 26 25 24 24 23 22 22 21 21 21 20 20 20 20 20 20 20 20 20 19 19 19 19 19 19 19 19 19 19 19 19 19 19 19
31 31 32 33 34 34 33 31 32 31 31 30 29 28 27 26 25 25 24 23 22 22 21 21 21 20 20 20 20 20 20 20 20 20 19 19 19 19 19 19 19 19 19 19 19 19 19 19 19
33 33 33 33 35 34 33 32 32 32 31 30 29 29 28 27 26 25 24 23 22 22 21 21 21 20 20 20 20 20 20 20 20 20 20 19 19 19 19 19 19 19 19 19 19 19 19 19 19
34 33 33 34 35 34 33 32 32 32 32 31 30 29 28 27 26 25 24 24 23 22 21 21 21 21 20 20 20 20 20 20 20 20 20 19 19 19 19 19 19 19 19 19 19 19 19 19 19
34 33 33 33 34 34 33 32 31 31 32 31 31 30 29 27 26 25 24 24 23 22 21 21 21 21 20 20 20 20 20 20 20 20 20 19 19 19 19 19 19 19 19 19 19 19 19 19 19
33 34 34 34 33 33 33 30 30 30 30 31 31 30 29 28 26 25 24 24 23 23 22 21 21 21 20 20 20 20 20 20 20 20 20 19 19 19 19 19 19 19 19 19 19 19 19 19 19
34 35 34 34 33 33 33 31 30 30 29 30 31 30 29 28 27 26 25 24 24 23 22 21 21 21 21 20 20 20 20 20 20 20 20 19 19 19 19 19 19 19 19 19 19 19 19 19 18
35 34 33 33 32 31 32 31 30 30 30 30 30 30 29 29 27 26 25 24 24 23 22 22 21 21 21 20 20 20 20 20 20 20 20 19 19 19 19 19 19 19 19 18 18 18 18 18 18
34 32 30 30 29 29 31 30 30 31 31 31 31 30 30 29 28 27 26 25 24 23 23 22 21 21 21 21 20 20 20 20 20 20 19 19 19 19 19 19 19 19 19 18 18 18 18 18 18
33 32 30 29 29 30 30 30 31 32 33 32 31 30 30 29 28 27 26 25 24 24 23 22 22 21 21 21 20 20 20 20 19 19 19 19 19 19 19 19 19 18 18 18 18 18 18 18 18
33 33 33 32 31 30 30 30 31 32 32 32 31 30 30 29 28 28 27 26 25 24 23 23 22 21 21 21 20 20 20 20 19 19 19 19 19 19 19 19 18 18 18 18 18 18 18 18 18
34 34 33 32 29 29 30 30 30 30 30 31 31 31 30 29 28 27 27 26 25 24 23 23 22 21 21 21 20 20 20 20 20 19 19 19 19 19 18 18 18 18 18 18 18 18 18 18 18
33 33 33 32 31 30 29 29 31 30 30 31 31 30 30 29 28 27 27 26 25 24 23 23 22 21 21 20 20 20 20 20 19 19 19 19 19 19 18 18 18 18 18 17 17 17 17 17 17
34 33 32 31 30 31 31 30 32 31 31 31 31 30 29 29 28 27 26 26 25 24 24 23 22 21 21 20 20 19 19 19 19 19 19 19 19 18 18 18 18 18 17 17 17 17 17 17 17
Wind_Speed
10 11 9 5 3 1 8 12 14 13 13 13 12 12 16 15 10 10 9 14 15 14 14 14 14 14 13 13 13 13 14 15 15 14 14 13 12 12 12 11 11 10 9 9 8 8 7 7 7
10 11 7 4 1 5 10 12 13 13 12 12 13 15 17 16 15 13 12 13 15 15 14 14 14 13 13 13 13 13 14 14 14 14 13 12 12 11 11 11 10 9 9 8 7 7 7 6 5
11 12 6 2 3 7 11 13 12 11 10 11 13 14 12 11 13 11 13 15 15 15 15 15 14 13 13 13 13 13 13 13 13 13 12 12 11 11 10 10 9 8 8 7 6 6 5 5 4
7 6 3 1 7 10 11 11 10 10 9 10 12 11 12 12 11 14 15 15 15 15 16 15 14 13 13 13 13 13 13 13 13 12 12 11 10 10 9 9 8 7 6 6 6 5 4 4 3
8 4 1 5 9 12 11 10 10 10 10 12 14 14 13 13 15 15 14 15 14 15 16 15 14 13 13 13 13 12 12 12 12 11 11 9 9 9 8 7 7 6 6 6 5 5 4 3 3
5 3 1 6 10 10 9 9 10 11 11 13 14 14 12 12 13 13 13 13 14 14 15 15 14 13 13 13 13 12 11 11 11 10 9 8 8 7 7 7 6 6 5 5 5 5 4 4 4
6 1 3 6 9 9 9 9 9 10 11 10 12 13 12 12 12 12 12 13 13 13 13 13 14 13 13 12 12 11 11 10 10 9 8 8 8 7 7 7 6 6 5 5 5 5 5 5 6
4 1 3 4 9 9 9 9 9 10 9 10 9 10 12 14 13 13 12 11 10 11 11 11 13 13 12 12 12 11 11 10 9 8 8 7 7 7 7 7 7 7 6 6 6 6 6 7 8
3 0 2 6 8 8 8 9 9 8 10 10 11 15 16 16 15 14 12 10 9 9 8 9 10 11 12 12 13 11 11 10 9 8 8 8 7 8 8 7 9 8 8 8 8 8 8 8 9
3 3 4 6 7 8 7 7 8 8 10 13 15 17 18 16 14 14 13 12 10 9 9 7 8 8 9 9 11 9 9 9 7 7 7 7 6 6 7 9 10 9 9 9 10 10 9 10 9
4 4 3 7 7 6 7 6 7 9 9 12 16 17 16 15 13 12 12 12 10 9 8 8 7 6 6 5 6 5 6 8 6 6 5 5 4 5 6 7 7 8 9 8 8 10 9 9 7
4 3 4 6 5 6 7 7 7 9 11 12 15 16 14 13 12 11 11 11 9 9 8 8 7 6 4 4 3 4 4 5 4 5 4 3 1 1 3 3 5 6 6 5 5 5 6 5 5
4 3 4 5 5 7 6 6 8 11 12 14 15 15 14 13 11 10 10 10 9 9 9 8 7 6 4 2 1 3 3 3 4 5 3 3 2 1 1 1 2 2 3 3 3 2 2 2 4
2 3 3 2 5 6 6 7 7 10 12 13 13 13 13 12 12 11 10 10 9 8 8 8 8 7 5 4 2 1 2 3 3 3 4 2 2 1 0 1 1 1 2 2 2 3 3 3 3
1 1 1 2 2 5 6 6 7 10 12 11 12 12 13 12 12 11 11 10 9 7 7 7 8 8 6 5 4 3 3 4 3 3 4 2 2 1 0 1 2 1 2 3 3 3 2 3 3
6 4 3 3 3 4 5 5 8 10 12 12 11 11 12 11 12 11 11 10 9 8 7 6 7 9 7 4 3 2 2 2 2 3 4 3 3 2 1 1 2 1 2 2 2 2 1 1 1
5 5 4 5 5 3 3 5 10 10 11 11 11 12 12 12 12 11 12 11 10 8 7 6 4 7 7 6 4 3 2 1 1 2 3 2 2 2 2 1 1 2 1 1 2 2 1 1 2
5 5 4 4 4 3 3 6 11 11 11 11 11 12 12 13 12 12 12 12 11 9 8 7 6 6 6 5 4 3 2 3 3 2 3 4 3 2 2 2 2 1 1 1 1 1 1 1 2
8 8 5 3 3 3 4 6 10 12 11 11 11 11 12 13 13 12 12 12 12 10 9 8 8 7 5 4 4 4 3 3 3 3 4 4 3 2 2 2 1 1 0 0 2 1 2 2 2
9 7 7 4 3 5 5 5 8 10 11 12 12 12 13 13 13 12 12 12 12 11 10 9 7 8 7 5 4 3 3 3 3 1 3 3 3 2 2 1 2 1 1 1 1 2 2 2 1
8 8 7 7 6 7 6 4 4 7 8 9 11 12 14 15 15 13 12 12 12 11 11 10 8 7 7 6 4 3 2 2 2 2 2 3 3 2 1 1 1 1 1 1 2 2 2 2 2
9 7 7 9 9 8 8 5 6 7 7 7 9 11 12 14 15 15 14 12 12 12 11 9 9 8 7 6 5 5 4 3 3 2 2 2 2 2 1 1 1 2 1 0 3 1 2 2 2
8 8 9 11 12 11 9 5 6 9 7 8 8 10 11 13 14 15 15 13 12 12 12 10 8 7 7 5 5 5 4 3 2 2 2 3 2 2 1 1 0 1 1 1 2 1 2 2 2
8 9 11 12 12 11 7 5 3 5 8 9 9 10 10 11 13 13 12 12 11 11 11 11 10 8 7 6 6 5 4 3 2 2 2 2 2 2 2 2 1 1 1 1 1 1 1 2 2
9 8 7 8 6 7 6 4 3 5 6 7 9 9 10 11 12 12 12 11 11 11 11 11 11 10 8 7 5 5 4 4 3 3 3 3 2 2 2 2 2 1 1 1 0 1 2 1 2
9 9 9 9 8 6 4 3 3 5 5 6 8 9 9 11 12 12 12 11 11 11 11 11 11 10 9 8 6 5 5 4 3 3 2 3 2 2 3 3 2 2 1 1 1 1 1 1 2
10 10 11 10 12 8 3 3 2 4 3 3 7 9 8 8 9 10 10 11 11 10 10 10 10 9 9 8 7 6 5 4 3 3 3 2 2 2 2 3 2 2 2 2 1 1 1 1 1
12 12 9 8 7 9 7 4 2 3 3 3 5 7 8 9 9 9 8 8 9 10 9 9 10 9 8 7 6 6 5 5 3 3 2 2 1 1 2 2 2 2 2 2 1 1 0 0 1
11 12 9 8 8 9 7 2 3 5 4 3 5 8 8 7 7 7 7 7 8 9 10 10 10 9 8 7 6 5 6 5 5 3 3 2 2 2 2 2 2 2 3 2 2 2 1 1 1
12 12 10 9 9 10 10 3 3 4 2 2 3 7 8 6 6 6 6 5 6 7 9 10 10 10 9 8 7 6 6 5 5 5 3 3 3 2 2 2 2 3 3 2 2 2 1 1 0
Wind_Direction
205 218 220 240 243 90 65 68 66 66 65 61 60 66 65 61 73 94 112 110 111 111 110 107 101 100 100 102 103 105 110 116 118 119 117 115 114 112 110 107 108 110 110 109 108 109 107 105 105
228 224 228 248 273 78 75 74 71 70 76 76 69 70 71 70 83 102 113 116 115 113 110 108 106 102 101 102 103 105 110 114 117 120 119 120 117 115 115 114 114 114 115 116 115 115 115 111 111
250 249 253 243 49 72 77 79 82 84 85 83 77 67 72 83 93 107 121 123 116 110 109 108 110 105 104 104 103 107 110 113 117 119 121 123 122 121 123 124 123 123 123 124 126 125 126 125 130
242 240 245 54 60 68 78 87 90 89 86 84 86 81 77 81 100 114 124 123 118 117 112 112 112 110 108 106 106 109 112 114 119 121 121 123 126 127 129 130 130 130 129 130 134 133 136 140 149
241 258 150 81 75 80 84 87 91 88 80 81 88 94 91 92 105 119 126 123 121 117 116 119 118 114 111 109 109 112 115 117 121 123 124 127 131 133 134 135 139 140 139 139 143 148 158 168 180
259 259 68 80 87 84 88 89 89 90 93 97 102 101 100 112 117 124 125 123 118 118 120 124 124 121 117 115 114 115 118 120 123 127 130 135 139 143 145 148 153 156 157 162 166 170 179 193 205
251 276 73 85 93 90 89 91 91 94 92 96 105 109 118 124 125 125 120 117 121 123 125 132 134 132 128 124 123 123 125 127 130 131 138 148 153 158 162 165 169 171 174 178 183 187 195 208 220
266 345 84 88 94 95 97 94 90 97 97 110 112 118 129 132 134 127 120 116 119 123 128 138 140 141 143 139 136 136 137 140 144 146 150 155 164 176 182 182 183 185 189 192 199 206 212 218 227
262 336 76 89 90 96 99 100 100 105 103 89 87 108 128 137 136 132 126 124 125 124 132 140 144 149 147 144 145 151 151 155 159 161 169 174 183 181 189 185 183 193 200 204 210 217 222 225 230
177 97 80 84 94 98 101 108 112 108 106 105 102 111 129 140 146 145 142 142 142 139 138 140 145 150 142 136 144 158 157 159 172 162 173 192 196 185 171 175 189 199 209 217 220 225 229 233 229
89 95 93 87 93 104 105 101 107 112 116 122 129 135 142 150 154 151 148 146 147 145 143 142 142 129 120 124 140 151 149 154 164 158 177 182 181 163 160 173 192 201 210 222 215 220 226 228 225
82 82 87 91 97 101 101 102 102 105 111 120 130 139 148 156 155 154 150 146 144 144 147 146 137 117 112 117 137 146 145 148 152 158 180 163 164 155 166 174 183 198 202 207 210 216 228 236 237
94 94 87 103 115 104 108 112 108 108 117 127 134 144 154 153 153 150 144 143 149 151 149 139 133 121 114 112 172 142 143 138 144 150 168 180 158 138 161 130 208 213 183 194 213 219 237 261 251
83 71 67 97 114 123 122 115 114 121 129 135 144 151 156 154 157 153 152 152 150 149 145 140 143 139 146 166 180 148 141 146 150 145 158 187 122 112 29 221 243 205 202 198 205 208 219 236 254
215 168 158 169 167 137 124 120 131 137 137 145 152 155 157 158 158 162 162 159 154 149 144 144 159 153 164 181 189 176 178 168 163 148 153 181 139 144 198 247 248 220 206 199 210 217 216 232 239
252 221 195 189 213 169 166 137 144 151 148 154 160 157 160 162 164 166 164 162 155 153 150 168 170 154 163 184 203 200 185 151 146 149 153 172 176 208 244 247 259 234 225 201 199 202 218 252 248
265 232 213 199 212 191 166 142 152 161 157 159 163 163 165 169 171 167 168 166 158 155 155 167 160 152 163 179 195 215 168 166 183 179 153 169 211 220 254 251 266 255 247 237 240 133 171 256 269
265 261 241 220 194 203 178 161 163 166 166 166 171 170 173 173 175 171 172 166 160 159 158 165 166 165 169 178 191 218 197 189 200 191 164 167 197 208 253 227 256 282 317 341 350 22 246 244 258
239 254 266 253 226 241 212 179 173 168 176 171 175 176 179 175 171 171 175 168 165 164 165 170 173 166 178 189 189 199 201 206 197 191 170 168 193 201 232 292 314 302 278 279 281 263 253 240 227
253 267 274 251 208 254 249 194 179 174 182 176 180 182 178 172 166 173 178 176 171 166 167 170 176 172 185 186 189 198 203 212 201 192 149 171 182 208 216 224 274 271 231 227 278 274 263 262 233
270 266 273 284 270 256 255 216 179 184 187 181 185 183 178 176 171 173 182 181 173 170 173 178 177 172 184 184 188 204 190 220 219 178 169 170 170 204 248 189 277 295 242 203 255 264 263 256 264
262 269 277 276 271 265 252 244 188 189 205 195 191 180 180 174 171 175 182 182 179 176 174 166 166 171 180 189 193 199 200 211 211 190 175 163 163 197 203 197 254 297 309 288 274 199 274 270 271
274 292 289 283 277 269 257 255 202 177 196 202 192 183 184 175 172 176 179 179 181 177 175 169 166 174 178 185 194 202 210 210 198 176 167 175 171 194 184 180 233 298 324 332 343 359 323 301 295
262 275 277 271 270 267 272 272 234 183 183 190 185 181 182 169 169 172 175 171 178 178 176 172 165 173 179 187 196 195 209 210 194 188 176 187 183 177 170 172 189 244 299 322 336 310 295 294 311
257 266 279 277 260 258 264 252 215 171 173 169 167 165 169 169 166 168 172 174 178 178 177 171 166 172 177 183 189 189 200 201 207 211 192 193 193 171 178 192 163 189 208 240 258 264 291 287 293
257 257 260 277 282 273 242 240 183 157 147 148 147 152 165 169 168 170 171 171 175 176 172 169 167 172 177 181 185 186 193 205 206 206 206 183 196 179 168 175 168 181 201 234 213 261 265 282 285
256 260 270 279 284 291 268 223 183 130 120 148 146 150 156 156 157 163 168 169 172 173 170 170 165 170 176 182 183 185 184 191 201 194 203 196 199 195 154 165 173 186 208 235 218 239 311 344 317
245 265 272 272 282 285 271 250 176 138 149 185 162 150 144 144 155 155 160 165 168 173 171 164 161 169 175 177 185 182 180 180 186 201 194 182 188 172 161 172 176 188 204 210 230 247 256 355 318
241 252 268 282 274 279 281 264 148 152 184 183 177 152 135 142 144 149 153 160 165 170 171 168 165 167 171 175 175 176 179 182 183 189 178 171 182 194 181 177 179 201 221 215 203 238 237 225 279
259 259 258 263 272 275 278 262 160 149 162 197 163 136 134 139 144 142 143 151 161 167 168 169 171 173 174 173 172 179 179 180 183 182 176 173 176 195 182 180 191 212 215 216 215 237 248 254 282
Height
1487 1487 1488 1490 1489 1490 1488 1479 1476 1478 1480 1483 1484 1485 1489 1493 1500 1513 1514 1513 1514 1515 1516 1517 1518 1519 1519 1520 1521 1521 1521 1523 1525 1528 1530 1531 1533 1535 1536 1538 1539 1541 1542 1543 1544 1545 1546 1547 1548
1487 1488 1491 1489 1489 1495 1491 1479 1481 1482 1484 1486 1487 1490 1493 1499 1504 1510 1513 1515 1516 1517 1517 1519 1520 1521 1521 1522 1523 1523 1524 1526 1528 1530 1532 1533 1535 1537 1538 1539 1541 1542 1543 1544 1545 1546 1547 1548 1549
1487 1489 1490 1485 1486 1490 1489 1480 1481 1483 1485 1487 1490 1494 1499 1505 1508 1512 1515 1517 1518 1518 1519 1520 1521 1523 1523 1524 1525 1526 1527 1528 1530 1532 1534 1535 1537 1538 1539 1541 1542 1543 1544 1545 1546 1547 1548 1549 1550
1488 1489 1487 1485 1486 1480 1480 1480 1481 1484 1486 1488 1492 1498 1504 1508 1511 1513 1516 1518 1519 1520 1521 1522 1523 1525 1525 1526 1527 1528 1530 1531 1532 1534 1535 1537 1538 1539 1541 1542 1543 1544 1545 1546 1547 1548 1549 1550 1550
1490 1487 1486 1486 1483 1478 1478 1480 1482 1485 1488 1491 1495 1501 1508 1512 1513 1515 1517 1520 1521 1523 1523 1524 1525 1526 1527 1528 1530 1530 1532 1533 1534 1535 1537 1538 1540 1541 1542 1543 1544 1545 1546 1547 1548 1549 1549 1550 1551
1488 1483 1488 1490 1484 1479 1479 1481 1483 1486 1490 1494 1498 1504 1510 1514 1515 1517 1519 1521 1523 1524 1525 1526 1527 1528 1529 1530 1531 1532 1533 1535 1536 1537 1538 1540 1541 1542 1543 1544 1545 1546 1547 1548 1548 1549 1550 1550 1551
1487 1483 1487 1485 1484 1482 1480 1482 1484 1487 1490 1494 1498 1504 1511 1515 1517 1519 1521 1523 1525 1526 1526 1527 1529 1530 1531 1532 1533 1534 1535 1536 1537 1539 1540 1541 1542 1543 1544 1545 1546 1547 1547 1548 1549 1549 1550 1551 1551
1481 1480 1485 1484 1484 1484 1481 1483 1485 1489 1492 1496 1498 1503 1510 1515 1518 1520 1522 1525 1526 1528 1529 1530 1531 1532 1532 1534 1535 1536 1537 1538 1539 1540 1541 1542 1543 1544 1544 1545 1546 1547 1548 1548 1549 1550 1550 1551 1552
1480 1484 1488 1483 1482 1482 1481 1483 1487 1489 1492 1496 1499 1503 1510 1514 1518 1521 1523 1526 1528 1529 1530 1531 1533 1534 1535 1536 1537 1538 1539 1540 1541 1542 1543 1543 1544 1544 1545 1546 1547 1547 1548 1548 1549 1549 1550 1551 1552
1477 1484 1483 1475 1476 1479 1481 1483 1486 1490 1493 1498 1503 1508 1511 1515 1518 1521 1523 1526 1528 1530 1531 1533 1534 1535 1537 1538 1538 1539 1540 1541 1542 1543 1543 1544 1545 1545 1546 1546 1547 1548 1548 1548 1549 1549 1550 1551 1551
1475 1478 1476 1475 1477 1479 1481 1484 1486 1489 1494 1499 1504 1509 1512 1515 1518 1520 1523 1525 1528 1530 1531 1533 1534 1536 1537 1538 1539 1540 1541 1542 1543 1543 1544 1545 1546 1546 1547 1547 1547 1547 1548 1548 1549 1549 1550 1550 1551
1477 1476 1475 1476 1478 1479 1482 1484 1486 1490 1495 1500 1504 1508 1512 1515 1518 1520 1522 1525 1527 1529 1531 1533 1534 1535 1537 1538 1540 1541 1542 1543 1543 1544 1545 1545 1546 1547 1547 1547 1547 1547 1547 1548 1549 1549 1550 1551 1551
1477 1477 1477 1477 1478 1480 1483 1485 1487 1492 1496 1500 1505 1509 1512 1515 1518 1520 1522 1525 1527 1529 1531 1532 1533 1534 1536 1538 1539 1541 1542 1543 1544 1544 1545 1546 1546 1547 1547 1547 1547 1547 1547 1548 1548 1549 1549 1550 1550
1479 1478 1478 1477 1478 1480 1482 1485 1489 1493 1496 1501 1504 1508 1511 1514 1517 1520 1522 1524 1526 1528 1530 1531 1533 1534 1535 1537 1539 1541 1542 1543 1544 1544 1545 1545 1546 1546 1546 1546 1546 1547 1547 1547 1547 1548 1548 1549 1549
1479 1480 1480 1478 1478 1478 1482 1487 1488 1492 1495 1500 1503 1507 1510 1513 1516 1519 1521 1524 1525 1527 1529 1531 1532 1533 1535 1537 1539 1541 1542 1543 1544 1544 1545 1545 1546 1546 1546 1546 1546 1546 1546 1546 1547 1547 1548 1548 1548
1479 1483 1488 1480 1476 1476 1483 1494 1488 1491 1494 1498 1502 1506 1509 1512 1515 1518 1520 1523 1525 1526 1528 1530 1532 1533 1534 1536 1538 1541 1542 1543 1544 1544 1544 1545 1545 1546 1546 1545 1546 1546 1545 1545 1546 1546 1547 1547 1547
1485 1490 1489 1481 1473 1473 1479 1489 1486 1489 1492 1496 1500 1504 1507 1511 1514 1516 1519 1521 1523 1525 1527 1529 1531 1533 1534 1536 1538 1540 1541 1542 1543 1543 1544 1544 1545 1545 1545 1545 1545 1545 1545 1545 1545 1545 1545 1545 1546
1493 1487 1483 1480 1471 1471 1477 1482 1482 1486 1489 1493 1497 1501 1505 1508 1511 1514 1517 1520 1522 1524 1526 1528 1530 1531 1533 1535 1537 1538 1540 1541 1542 1542 1543 1543 1544 1544 1544 1544 1544 1544 1544 1544 1544 1544 1544 1544 1544
1478 1479 1479 1474 1467 1471 1475 1478 1478 1481 1485 1489 1494 1498 1501 1505 1509 1513 1516 1518 1520 1523 1525 1526 1528 1530 1532 1534 1535 1537 1538 1540 1541 1541 1542 1543 1543 1543 1543 1543 1543 1543 1543 1543 1543 1542 1543 1543 1543
1471 1476 1476 1469 1465 1469 1472 1474 1475 1477 1481 1485 1489 1494 1498 1502 1507 1511 1514 1516 1518 1520 1522 1525 1527 1528 1530 1532 1534 1535 1537 1538 1539 1540 1541 1541 1542 1542 1542 1542 1542 1542 1541 1541 1541 1541 1541 1541 1542
1471 1473 1473 1473 1465 1464 1470 1479 1478 1477 1478 1481 1485 1489 1493 1498 1502 1508 1511 1514 1516 1518 1520 1523 1525 1527 1529 1531 1532 1534 1535 1536 1538 1538 1539 1539 1540 1540 1541 1541 1541 1541 1540 1540 1540 1540 1540 1540 1540
1474 1464 1465 1468 1472 1475 1472 1492 1481 1478 1479 1480 1482 1486 1490 1494 1499 1503 1507 1511 1513 1515 1518 1520 1523 1525 1527 1528 1530 1532 1533 1534 1536 1536 1537 1538 1538 1539 1539 1539 1539 1539 1539 1539 1539 1538 1538 1538 1538
1466 1461 1464 1466 1470 1474 1470 1483 1483 1474 1481 1480 1480 1483 1486 1490 1495 1500 1504 1507 1510 1513 1516 1518 1520 1522 1524 1526 1527 1529 1531 1533 1534 1535 1535 1536 1536 1537 1537 1537 1537 1538 1538 1537 1537 1537 1537 1537 1537
1460 1464 1466 1467 1472 1488 1477 1484 1487 1474 1474 1475 1476 1480 1484 1487 1492 1497 1501 1504 1508 1511 1513 1516 1517 1519 1521 1523 1525 1527 1529 1530 1532 1533 1533 1534 1534 1535 1535 1536 1536 1536 1536 1536 1536 1536 1536 1536 1536
1461 1475 1493 1497 1498 1496 1475 1480 1482 1468 1466 1470 1473 1477 1481 1485 1489 1494 1498 1501 1505 1508 1511 1513 1515 1516 1519 1521 1523 1525 1526 1528 1529 1530 1531 1532 1532 1532 1533 1533 1533 1534 1534 1534 1534 1534 1535 1534 1534
1465 1472 1494 1506 1503 1492 1480 1484 1472 1461 1462 1467 1471 1475 1479 1483 1487 1491 1495 1498 1502 1506 1508 1510 1512 1514 1516 1518 1520 1522 1524 1525 1527 1528 1529 1530 1530 1531 1531 1531 1531 1532 1533 1533 1533 1533 1533 1533 1533
1465 1467 1463 1476 1481 1491 1486 1477 1467 1461 1464 1467 1470 1474 1477 1480 1484 1489 1493 1496 1499 1502 1505 1508 1509 1511 1513 1516 1518 1520 1521 1523 1524 1526 1527 1528 1529 1530 1530 1530 1530 1530 1531 1531 1532 1531 1531 1531 1531
1457 1459 1464 1476 1496 1502 1491 1484 1479 1472 1468 1468 1468 1472 1475 1480 1484 1487 1491 1494 1497 1499 1503 1505 1507 1509 1511 1513 1515 1517 1518 1520 1522 1523 1525 1526 1527 1528 1528 1528 1528 1529 1529 1530 1530 1530 1530 1530 1529
1458 1461 1463 1468 1474 1492 1499 1489 1464 1467 1466 1467 1468 1471 1475 1479 1482 1486 1489 1492 1495 1498 1500 1503 1505 1507 1509 1511 1512 1514 1516 1518 1519 1521 1522 1523 1524 1525 1526 1526 1526 1527 1527 1528 1528 1528 1528 1528 1528
1452 1456 1462 1478 1479 1474 1481 1482 1457 1461 1464 1466 1466 1469 1474 1478 1482 1485 1488 1491 1494 1496 1498 1500 1503 1504 1506 1508 1510 1512 1514 1516 1517 1518 1519 1521 1522 1523 1524 1524 1524 1525 1525 1526 1526 1526 1526 1526 1526